When you browse on this site, cookies collect data to enhance your experience and personalize the content and advertising you see.
Visit our Privacy Policy to learn more. By continuing to use the site, you agree to this use of cookies and data.
  • In Hungary
  • List of Countries
  • For 7 days
  • Water Temperature
  • Satellite Maps
  • Weather Map
  • News
  • Weather Widgets
  • user-avatar
    Login

    Hourly Weather Shalim

    Today, 26 March, Tuesday

    Time Temperature Precipitation Wind Pressure Humidity
    00:00 +24°C° 0 mm 9 mps 735 mmHg 83%
    01:00 +24°C° 0 mm 9 mps 735 mmHg 85%
    02:00 +23°C° 0 mm 8 mps 735 mmHg 86%
    03:00 +23°C° 0 mm 8 mps 735 mmHg 87%
    04:00 +23°C° 0 mm 8 mps 735 mmHg 88%
    05:00 +23°C° 0 mm 8 mps 735 mmHg 88%
    06:00 +23°C° 0 mm 8 mps 736 mmHg 88%
    07:00 +23°C° 0 mm 8 mps 736 mmHg 87%
    08:00 +26°C° 0 mm 9 mps 736 mmHg 78%
    09:00 +27°C° 0 mm 10 mps 736 mmHg 69%
    10:00 +29°C° 0 mm 11 mps 736 mmHg 59%
    11:00 +29°C° 0 mm 11 mps 736 mmHg 56%
    12:00 +31°C° 0 mm 11 mps 736 mmHg 52%
    13:00 +32°C° 0 mm 11 mps 736 mmHg 49%
    14:00 +31°C° 0 mm 11 mps 736 mmHg 50%
    15:00 +31°C° 0 mm 11 mps 736 mmHg 52%
    16:00 +31°C° 0 mm 10 mps 735 mmHg 53%
    17:00 +29°C° 0 mm 10 mps 736 mmHg 59%
    18:00 +28°C° 0 mm 9 mps 736 mmHg 66%
    19:00 +26°C° 0 mm 9 mps 736 mmHg 72%
    20:00 +26°C° 0 mm 9 mps 736 mmHg 74%
    21:00 +26°C° 0 mm 9 mps 737 mmHg 76%
    22:00 +26°C° 0 mm 8 mps 737 mmHg 77%
    23:00 +24°C° 0 mm 8 mps 737 mmHg 79%

    Tomorrow, 27 March, Wednesday

    Time Temperature Precipitation Wind Pressure Humidity
    00:00 +24°C° 0 mm 8 mps 737 mmHg 81%
    01:00 +24°C° 0 mm 8 mps 737 mmHg 83%
    02:00 +24°C° 0 mm 8 mps 736 mmHg 83%
    03:00 +24°C° 0 mm 8 mps 736 mmHg 83%
    04:00 +23°C° 0 mm 8 mps 736 mmHg 83%
    05:00 +23°C° 0 mm 8 mps 736 mmHg 82%
    06:00 +24°C° 0 mm 8 mps 736 mmHg 81%
    07:00 +24°C° 0 mm 8 mps 737 mmHg 80%
    08:00 +26°C° 0 mm 9 mps 737 mmHg 69%
    09:00 +28°C° 0 mm 10 mps 738 mmHg 59%
    10:00 +31°C° 0 mm 11 mps 738 mmHg 49%
    11:00 +32°C° 0 mm 10 mps 738 mmHg 45%
    12:00 +33°C° 0 mm 10 mps 737 mmHg 41%
    13:00 +34°C° 0 mm 9 mps 737 mmHg 36%
    14:00 +33°C° 0 mm 9 mps 737 mmHg 37%
    15:00 +33°C° 0 mm 9 mps 736 mmHg 37%
    16:00 +33°C° 0 mm 9 mps 736 mmHg 38%
    17:00 +31°C° 0 mm 9 mps 736 mmHg 44%
    18:00 +29°C° 0 mm 8 mps 736 mmHg 51%
    19:00 +28°C° 0 mm 8 mps 736 mmHg 57%
    20:00 +27°C° 0 mm 7 mps 737 mmHg 59%
    21:00 +27°C° 0 mm 6 mps 737 mmHg 61%
    22:00 +27°C° 0 mm 6 mps 738 mmHg 63%
    23:00 +27°C° 0 mm 6 mps 737 mmHg 64%

    Day after tomorrow, 28 March, Thursday

    Time Temperature Precipitation Wind Pressure Humidity
    00:00 +26°C° 0 mm 5 mps 737 mmHg 65%
    01:00 +26°C° 0 mm 5 mps 737 mmHg 66%
    02:00 +26°C° 0 mm 5 mps 736 mmHg 66%
    03:00 +26°C° 0 mm 5 mps 736 mmHg 67%
    04:00 +25°C° 0 mm 5 mps 735 mmHg 67%
    05:00 +25°C° 0 mm 5 mps 736 mmHg 68%
    06:00 +26°C° 0 mm 6 mps 736 mmHg 69%
    07:00 +26°C° 0 mm 6 mps 737 mmHg 70%
    08:00 +28°C° 0 mm 7 mps 737 mmHg 60%
    09:00 +30°C° 0 mm 7 mps 738 mmHg 51%
    10:00 +33°C° 0 mm 8 mps 738 mmHg 41%
    11:00 +34°C° 0 mm 8 mps 738 mmHg 38%
    12:00 +34°C° 0 mm 8 mps 737 mmHg 34%
    13:00 +35°C° 0 mm 8 mps 737 mmHg 31%
    14:00 +35°C° 0 mm 8 mps 736 mmHg 33%
    15:00 +34°C° 0 mm 8 mps 735 mmHg 34%
    16:00 +34°C° 0 mm 8 mps 735 mmHg 36%
    17:00 +32°C° 0 mm 8 mps 735 mmHg 44%
    18:00 +30°C° 0 mm 7 mps 735 mmHg 52%
    19:00 +28°C° 0 mm 7 mps 735 mmHg 60%
    20:00 +28°C° 0 mm 7 mps 736 mmHg 63%
    21:00 +27°C° 0 mm 7 mps 736 mmHg 65%
    22:00 +27°C° 0 mm 6 mps 737 mmHg 68%
    23:00 +27°C° 0 mm 6 mps 736 mmHg 69%

    29 March, Friday

    Time Temperature Precipitation Wind Pressure Humidity
    00:00 +26°C° 0 mm 6 mps 736 mmHg 71%
    01:00 +26°C° 0 mm 6 mps 735 mmHg 72%
    02:00 +26°C° 0 mm 6 mps 735 mmHg 73%
    03:00 +26°C° 0 mm 6 mps 735 mmHg 74%
    04:00 +25°C° 0 mm 5 mps 735 mmHg 74%
    05:00 +25°C° 0 mm 5 mps 735 mmHg 74%
    06:00 +26°C° 0 mm 5 mps 735 mmHg 73%
    07:00 +26°C° 0 mm 5 mps 736 mmHg 73%
    08:00 +28°C° 0 mm 6 mps 736 mmHg 61%
    09:00 +30°C° 0 mm 6 mps 737 mmHg 49%
    10:00 +33°C° 0 mm 7 mps 738 mmHg 37%
    11:00 +34°C° 0 mm 7 mps 737 mmHg 34%
    12:00 +35°C° 0 mm 7 mps 736 mmHg 32%
    13:00 +35°C° 0 mm 7 mps 736 mmHg 30%
    14:00 +35°C° 0 mm 7 mps 735 mmHg 32%
    15:00 +34°C° 0 mm 7 mps 735 mmHg 35%
    16:00 +34°C° 0 mm 7 mps 734 mmHg 37%
    17:00 +32°C° 0 mm 7 mps 734 mmHg 45%
    18:00 +29°C° 0 mm 7 mps 735 mmHg 53%
    19:00 +28°C° 0 mm 6 mps 735 mmHg 62%
    20:00 +28°C° 0 mm 6 mps 735 mmHg 65%
    21:00 +27°C° 0 mm 6 mps 736 mmHg 68%
    22:00 +27°C° 0 mm 6 mps 736 mmHg 71%
    23:00 +26°C° 0 mm 5 mps 736 mmHg 72%

    30 March, Saturday

    Time Temperature Precipitation Wind Pressure Humidity
    00:00 +26°C° 0 mm 5 mps 735 mmHg 74%
    01:00 +26°C° 0 mm 5 mps 735 mmHg 75%
    02:00 +25°C° 0 mm 4 mps 735 mmHg 75%
    03:00 +25°C° 0 mm 4 mps 735 mmHg 75%
    04:00 +25°C° 0 mm 4 mps 734 mmHg 75%
    05:00 +25°C° 0 mm 4 mps 735 mmHg 74%
    06:00 +25°C° 0 mm 4 mps 735 mmHg 73%
    07:00 +25°C° 0 mm 4 mps 736 mmHg 72%
    08:00 +27°C° 0 mm 5 mps 736 mmHg 62%
    09:00 +30°C° 0 mm 5 mps 737 mmHg 51%
    10:00 +33°C° 0 mm 6 mps 737 mmHg 40%
    11:00 +33°C° 0 mm 6 mps 736 mmHg 37%
    12:00 +34°C° 0 mm 7 mps 736 mmHg 34%
    13:00 +35°C° 0 mm 7 mps 735 mmHg 31%
    14:00 +34°C° 0 mm 7 mps 735 mmHg 33%
    15:00 +34°C° 0 mm 7 mps 734 mmHg 34%
    16:00 +33°C° 0 mm 7 mps 734 mmHg 36%
    17:00 +32°C° 0 mm 7 mps 734 mmHg 44%
    18:00 +29°C° 0 mm 7 mps 735 mmHg 52%
    19:00 +28°C° 0 mm 6 mps 735 mmHg 61%
    20:00 +27°C° 0 mm 6 mps 735 mmHg 64%
    21:00 +27°C° 0 mm 7 mps 736 mmHg 68%
    22:00 +26°C° 0 mm 7 mps 736 mmHg 71%
    23:00 +26°C° 0 mm 7 mps 736 mmHg 73%

    31 March, Sunday

    Time Temperature Precipitation Wind Pressure Humidity
    00:00 +26°C° 0 mm 6 mps 735 mmHg 74%
    01:00 +24°C° 0 mm 6 mps 735 mmHg 76%
    02:00 +24°C° 0 mm 6 mps 735 mmHg 76%
    03:00 +24°C° 0 mm 6 mps 734 mmHg 77%
    04:00 +24°C° 0 mm 6 mps 734 mmHg 77%
    05:00 +24°C° 0 mm 6 mps 735 mmHg 77%
    06:00 +24°C° 0 mm 6 mps 735 mmHg 76%
    07:00 +24°C° 0 mm 6 mps 735 mmHg 75%
    08:00 +27°C° 0 mm 7 mps 736 mmHg 64%
    09:00 +29°C° 0 mm 7 mps 736 mmHg 52%
    10:00 +32°C° 0 mm 8 mps 737 mmHg 41%
    11:00 +33°C° 0 mm 8 mps 736 mmHg 38%
    12:00 +34°C° 0 mm 8 mps 736 mmHg 34%
    13:00 +35°C° 0 mm 8 mps 735 mmHg 31%
    14:00 +34°C° 0 mm 8 mps 735 mmHg 33%
    15:00 +34°C° 0 mm 8 mps 735 mmHg 34%
    16:00 +33°C° 0 mm 8 mps 734 mmHg 36%
    17:00 +32°C° 0 mm 8 mps 735 mmHg 45%
    18:00 +29°C° 0 mm 8 mps 735 mmHg 55%
    19:00 +27°C° 0 mm 8 mps 735 mmHg 64%
    20:00 +27°C° 0 mm 7 mps 736 mmHg 66%
    21:00 +27°C° 0 mm 7 mps 736 mmHg 69%
    22:00 +26°C° 0 mm 7 mps 736 mmHg 72%
    23:00 +26°C° 0 mm 7 mps 736 mmHg 72%
    Show more